Content
SEND FEEDBACK

Daily
Averages
Monthly
Summary
Canada

MONTREAL, QUEBEC


Home > North America > Canada > Quebec
Elevation: 118 feet     Latitude: 45 28N     Longitude: 073 45W

WEATHER
 
SELECT A DAY
Number of Records: 198,022;   Date Range: 1/1/95 - 7/20/14
 
SHARE

PRINT THIS DATA

[ ← Previous Day ]
WEATHER ALMANAC - JANUARY 4, 2013
[ Next Day → ]
[ °C ]   °F
Weather ElementAverageHighLow
Temperature21.2 °F32 °F (1:00 pm)4 °F (1:00 am)
Dewpoint11.2 °F26.6 °F (5:00 pm)-1 °F (1:00 am)
Humidity80.4 %93 % (8:00 am)68 % (7:00 pm)
Wind Speed15.5 mph32.2 mph (10:39 am)
Wind Gust41.4 mph (12:00 pm)
Weather ElementAverage
Visibility8.6 mi
Wind DirectionWSW (233.1 °)

Weather ElementTotal
Precipitation---
Heating Degree Days47 (Base 65)
Averaged from 42 records on January 4, 2013
WEATHER CONDITIONS BREAKOUT
WIND DIRECTION BREAKOUT
WEATHER BY HOUR - JANUARY 4, 2013
[ °C ]   °F
Local TimeTemperatureDewpointHumidityBarometerVisibilityWind DirectionWind SpeedGust SpeedPrecipitationEventsConditions
12:31 AM5.0 °F0.0 °F5.0 miNW (320°)5.8 mphSnowLight Snow
1:00 AM4.0 °F-1.0 °F70 %29.88 in7.0 miNW (310°)3.5 mphSnowLight Snow
1:00 AM5.0 °F-0.4 °F78 %29.88 in7.0 miWNW (300°)3.5 mphSnowLight Snow
1:09 AM5.0 °F0.0 °F8.0 miNW (310°)3.5 mphSnowLight Snow
1:47 AM5.0 °F0.0 °F8.0 miSW (230°)2.3 mphSnowLight Snow
2:00 AM6.8 °F1.4 °F79 %29.87 in8.0 miSSW (210°)4.6 mphSnowLight Snow
3:00 AM6.8 °F1.4 °F79 %29.89 in8.0 miSW (220°)8.1 mphSnowLight Snow
3:39 AM8.6 °F0.0 °F12.0 miSSW (200°)5.8 mphOvercast
4:00 AM8.6 °F3.2 °F79 %29.86 in10.0 miSSW (210°)8.1 mphSnowLight Snow
5:00 AM10.4 °F5.0 °F79 %29.84 in12.0 miSW (220°)6.9 mphSnowLight Snow
6:00 AM10.4 °F8.6 °F92 %29.82 in2.0 miSSW (200°)9.2 mphSnowLight Snow
6:34 AM12.2 °F0.0 °F4.0 miSSE (160°)9.2 mphSnowLight Snow
7:00 AM13.0 °F10.0 °F84 %29.78 in7.0 miSSE (150°)8.1 mphSnowLight Snow
7:00 AM12.2 °F10.4 °F92 %29.78 in8.0 miSSE (150°)9.2 mphSnowLight Snow
8:00 AM15.8 °F14.0 °F93 %29.75 in10.0 miSouth (180°)8.1 mphOvercast
8:13 AM17.6 °F0.0 °F6.0 miSouth (180°)5.8 mphSnowLight Snow
8:24 AM17.6 °F0.0 °F1.8 miWSW (240°)5.8 mphSnowLight Snow
8:40 AM15.8 °F0.0 °F8.0 miWest (280°)5.8 mphSnowLight Snow
9:00 AM15.8 °F14.0 °F93 %29.75 in10.0 miWest (270°)4.6 mphOvercast
9:48 AM21.2 °F0.0 °F8.0 miSSW (200°)10.4 mphSnowLight Snow
10:00 AM21.2 °F17.6 °F86 %29.72 in2.5 miSSW (210°)11.5 mphSnowLight Snow
10:39 AM28.4 °F0.0 °F1.5 miWSW (240°)32.2 mph40.3 mphSnowLight Snow
10:47 AM28.4 °F0.0 °F3.0 miWSW (240°)28.8 mph40.3 mphSnowLight Snow
10:53 AM30.2 °F0.0 °F4.0 miWSW (240°)27.6 mph38.0 mphSnowLight Snow
11:00 AM30.2 °F24.8 °F80 %29.70 in5.0 miSW (230°)28.8 mph39.1 mphSnowLight Snow
11:17 AM30.2 °F0.0 °F2.5 miWSW (240°)27.6 mph39.1 mphSnowLight Snow
12:00 PM30.2 °F24.8 °F80 %29.67 in4.0 miWSW (240°)28.8 mph41.4 mphSnowLight Snow
1:00 PM32.0 °F24.8 °F75 %29.67 in8.0 miWSW (240°)29.9 mph38.0 mphSnowLight Snow
1:00 PM31.0 °F26.0 °F72 %29.67 in7.0 miWSW (240°)27.6 mphSnowLight Snow
2:00 PM32.0 °F24.8 °F75 %29.67 in15.0 miWSW (240°)24.2 mph36.8 mphSnowLight Snow
3:00 PM32.0 °F24.8 °F75 %29.68 in15.0 miWSW (250°)23.0 mph29.9 mphSnowLight Snow
4:00 PM32.0 °F24.8 °F75 %29.70 in15.0 miWSW (250°)19.6 mph26.5 mphSnowLight Snow
5:00 PM32.0 °F26.6 °F80 %29.71 in15.0 miWSW (240°)20.7 mph27.6 mphSnowLight Snow
6:00 PM32.0 °F26.6 °F80 %29.72 in15.0 miWSW (240°)18.4 mph25.3 mphSnowLight Snow
6:36 PM32.0 °F0.0 °F15.0 miWSW (240°)18.4 mph27.6 mphOvercast
7:00 PM32.0 °F26.0 °F68 %29.73 in15.0 miWSW (240°)23.0 mphSnowLight Snow
7:00 PM32.0 °F24.8 °F75 %29.73 in15.0 miSW (230°)23.0 mph28.8 mphOvercast
7:33 PM32.0 °F0.0 °F15.0 miWSW (240°)18.4 mph24.2 mphSnowLight Snow
8:00 PM32.0 °F26.6 °F80 %29.73 in15.0 miWSW (240°)20.7 mph27.6 mphSnowLight Snow
9:00 PM32.0 °F26.6 °F80 %29.72 in15.0 miWSW (240°)23.0 mphSnowLight Snow
10:00 PM30.2 °F26.6 °F86 %29.71 in4.0 miWSW (240°)21.9 mph29.9 mphSnowLight Snow
11:00 PM30.2 °F26.6 °F86 %29.71 in4.0 miWSW (240°)26.5 mph38.0 mphSnowLight Snow
Hourly data recorded from CYUL, located miles away from Montreal, Quebec







STORIES FROM OUR PARTNERS